Location: Roc des P�zouls
(43.9667°N, 3.5500°E)
Time: 01:15:51
(UTC+00:00)

COSMO-SKYMED 1 - Pass Details

Date: 14 November 2019
Orbit: 621 x 623 km, 97.9° (Epoch: 06 December)

Event Time Altitude Azimuth Distance (km) Brightness Sun altitude
Rises 05:53:40 0° 199° (SSW) 2,890 6.0 -8.4°
Reaches altitude 10° 05:56:16 10° 215° (SW) 1,989 5.0 -8.0°
Maximum altitude 05:59:38 22° 266° (W) 1,372 3.8 -7.4°
Drops below altitude 10° 06:03:01 10° 318° (NW) 2,001 4.6 -6.8°
Sets 06:05:39 0° 334° (NNW) 2,913 5.6 -6.4°
